SL-8 R/B

Satellite information

Favourite Embed

Satellite Type and Status

ROCKET BODYIN ORBIT

Key statistics

Satellite SL-8 R/B at a glance.

Uptime

11225

Days in orbit

Revolutions

≈ 13.7

Per day

Orbit

LEO

Low Earth Orbit

Inclination

82.9

Latest

Satellite identification and parameters

Extended collection of information and parameters for SL-8 R/B.

Object identification

Identified? True

Debris? False

Object name: SL-8 R/B

International designator: 1995-012B

Object number (NORAD): 23527

Object ID (CCSDS): 23527

Country: COMMONWEALTH OF INDEPENDENT STATES (CIS)

Current information (Y/N): Y

RCS size: LARGE

Orbital parameters

Period: 104.809 minutes

Inclination: 82.9427 deg

SMA: 7363.653 km

Apoapsis: 999.927 km

Periapsis: 971.109 km

RAAN: 260.2513 deg

Eccentricy: 0.00195679

Argument of periapsis: 332.4363 deg

Mean anomaly: 27.5753 deg

Mean motion: 13.73924157 rev/day

Mean motion (dot): 0.00000088 rev/day2

B* drag term: 0.000078072442 1/REarth

Two-line elements (TLE)

Creation date: Dec. 12, 2025, 10:14 a.m.

Reference frame: TEME

Reference center: EARTH

Epoch: Dec. 12, 2025, 6:07 a.m. UTC

TLE line 0: 0 SL-8 R/B

TLE line 1: 1 23527U 95012B 25346.25516859 .00000088 00000-0 78072-4 0 9991

TLE line 2: 2 23527 82.9427 260.2513 0019568 332.4363 27.5753 13.73924157539935

Live tracking on map

Real-time ground track for satellite SL-8 R/B.

In-orbit conjunctions

A list of the most updated potential collisions computed for object SL-8 R/B.

Target Orbit TCA Probability of collision Miss distance Type
FENGYUN 1C DEB SSO 2024-06-13 10:02:48 0.0001481589 179.0 (m) DEBRIS

Associated space launch

There is no information available about the launch of this satellite, yet. Check back as we update our databases every day.

Latest news about this satellite

There are no fresh news available about this satellite. Check back as we update our databases every day.


Newsletter sign-up

Weekly statistics, charts and insights to help you stay on top of the space industry.